Theta_e
315 314 313 311 308 306 307 308 308 307 306 307 308 307 307 308 309 309 310 311 315 317 323 324 321 337 342 348 348 350 356 358 355 354 354 351 353 349 349 349 348 347 346 344 342
307 307 308 309 309 308 308 308 308 307 307 306 307 307 307 308 309 310 311 311 315 318 324 323 322 340 345 347 348 350 353 355 349 350 352 349 350 351 348 349 348 347 346 344 342
306 307 308 308 308 309 308 309 309 308 306 307 307 307 307 308 310 321 318 312 315 317 324 324 321 338 342 344 348 350 354 350 349 350 351 349 347 349 350 352 348 347 347 344 343
309 309 309 309 309 309 309 309 309 309 306 307 307 307 308 310 321 322 316 312 316 317 321 322 325 328 340 344 343 350 347 348 349 352 351 350 348 350 348 352 348 347 346 344 343
307 307 307 307 308 308 309 309 309 308 307 307 307 307 310 311 312 319 314 311 317 316 319 322 324 330 337 341 339 346 346 343 343 350 352 350 350 350 350 350 347 346 345 344 344
304 304 304 304 305 307 308 308 309 308 306 307 308 308 312 313 318 318 311 314 319 319 321 320 325 330 336 336 340 338 340 338 337 337 349 349 348 348 351 349 347 346 345 345 345
307 306 305 305 305 305 306 307 308 308 306 308 309 311 315 314 321 318 313 318 319 319 320 320 326 331 335 337 336 333 335 346 350 348 349 346 350 350 350 348 348 347 346 346 346
309 308 308 307 306 305 305 307 308 306 307 310 309 312 318 319 321 318 315 317 319 318 320 320 328 330 331 331 328 330 329 334 353 351 349 349 355 352 350 347 348 347 346 346 345
309 310 309 307 306 305 305 307 309 308 310 310 311 314 323 323 322 319 319 317 316 317 317 318 323 326 323 332 334 329 339 332 351 351 351 350 351 353 352 349 347 346 346 345 345
312 312 309 306 305 305 309 315 313 312 312 309 313 317 321 323 323 320 322 320 317 317 317 317 318 326 328 333 342 337 333 329 341 352 350 352 351 352 353 353 349 347 346 345 345
312 312 307 305 306 312 312 314 314 316 313 313 314 314 317 317 316 321 322 323 319 319 320 318 324 326 332 331 330 330 330 331 328 332 337 339 342 349 352 348 350 348 347 346 345
312 311 307 310 314 314 314 314 314 314 314 314 314 314 316 316 315 321 321 324 322 321 320 319 323 325 328 327 329 331 332 331 328 339 332 349 351 349 349 349 349 349 347 348 346
312 308 311 314 314 314 314 314 314 313 314 313 314 314 316 316 316 318 322 325 325 323 321 320 324 325 327 328 331 331 334 331 330 327 348 349 353 352 351 350 351 351 349 348 347
310 306 313 314 314 314 314 314 314 313 314 315 314 316 315 315 315 316 319 325 326 327 323 323 326 327 326 329 330 334 328 330 329 328 328 346 338 353 350 352 349 351 351 349 348
306 305 312 314 314 314 314 315 314 313 315 315 315 314 314 313 317 316 318 320 326 326 325 326 328 331 332 330 328 331 327 329 328 328 325 335 339 331 349 351 350 347 349 350 348
313 312 311 313 314 314 315 315 314 316 315 316 313 313 314 313 314 315 316 317 317 322 323 320 319 325 328 327 327 325 323 322 322 324 327 328 334 337 338 338 340 341 346 348 350
315 315 316 315 315 316 315 315 317 318 316 316 315 313 313 313 315 316 316 316 318 324 327 317 317 316 316 324 324 325 326 327 328 327 328 322 331 338 335 336 340 341 340 342 348
316 316 316 316 316 315 316 316 319 316 316 315 314 315 315 315 315 315 316 317 315 315 318 323 320 317 316 317 323 326 327 327 329 328 327 322 332 332 322 325 330 339 341 343 346
317 317 316 316 315 315 315 317 315 314 314 315 315 317 316 315 316 316 315 316 315 314 321 319 317 315 315 315 316 321 324 320 323 320 327 325 327 327 325 331 334 340 342 343 343
317 317 315 316 315 315 316 314 315 313 313 313 316 315 317 315 316 316 316 315 316 314 312 315 318 314 314 314 315 319 316 324 324 327 327 328 327 326 331 336 338 337 339 343 344
316 316 315 317 315 313 315 314 314 312 312 313 313 314 313 315 315 316 315 315 315 315 313 314 317 316 315 314 314 317 319 319 322 322 327 330 326 324 333 335 333 334 339 342 346
314 316 314 316 315 310 314 313 312 312 312 313 313 313 313 313 315 316 315 314 313 314 315 313 315 316 314 312 312 312 314 316 326 325 322 326 322 328 331 331 330 332 337 339 341
314 314 313 315 316 314 312 313 311 312 312 313 313 312 311 312 316 315 314 312 313 315 315 314 314 317 315 315 314 315 314 313 314 317 324 326 321 326 330 331 329 330 334 334 335
313 314 313 312 309 313 312 313 313 311 310 311 312 311 313 313 313 314 314 312 311 315 313 312 313 315 317 316 314 315 313 313 315 321 320 320 318 324 329 330 328 330 331 331 330
313 311 309 313 312 311 312 312 312 312 311 311 312 312 312 314 314 314 313 313 312 311 312 313 315 314 314 313 313 313 313 313 314 315 319 317 319 325 327 327 325 327 329 328 328
315 313 310 309 309 312 311 312 312 312 312 311 312 311 312 313 312 314 313 313 313 312 312 311 315 314 314 312 312 313 312 312 312 312 314 315 319 321 323 323 323 323 324 325 325
314 313 313 309 312 313 313 312 312 311 311 311 311 312 312 311 310 310 309 309 310 312 312 312 314 315 314 312 311 312 312 311 312 314 314 313 319 320 321 320 319 320 320 320 321
Wind_Speed
17 17 16 15 14 13 11 10 9 12 9 9 10 8 8 9 9 10 11 7 15 23 21 21 16 15 12 7 3 2 2 4 3 2 5 3 4 10 6 6 4 6 9 22 32
17 17 17 15 14 13 13 13 11 9 10 9 10 8 7 7 9 12 7 11 21 26 27 25 19 17 7 5 2 2 1 3 3 6 8 10 9 11 0 2 9 12 21 30 32
18 18 17 16 15 14 12 11 13 12 8 8 9 7 6 5 6 2 3 16 24 28 24 23 19 12 6 5 4 1 2 1 4 10 16 12 10 10 6 5 8 23 31 33 31
19 18 18 17 15 14 13 13 10 12 12 6 6 5 3 2 2 1 4 18 25 29 25 22 17 12 6 6 6 3 6 6 3 8 6 9 15 10 7 4 6 23 31 34 32
21 20 18 17 16 15 14 12 13 9 10 9 3 4 4 3 2 2 9 21 25 27 27 20 21 10 8 6 4 8 5 5 6 7 5 14 10 6 8 5 15 26 29 30 29
20 18 18 17 16 14 13 13 10 10 6 7 5 2 2 2 3 4 12 22 24 27 27 19 14 8 9 5 6 3 8 11 7 7 10 10 7 6 9 12 21 25 28 27 26
20 19 18 18 16 14 12 11 10 8 6 3 5 3 3 2 7 9 14 21 23 25 25 17 14 5 7 4 2 4 4 3 6 11 5 17 7 3 17 18 22 25 26 25 24
21 21 19 19 18 14 11 9 8 6 5 4 2 4 3 7 10 12 13 20 20 18 18 17 12 5 1 3 1 3 2 2 4 6 9 6 8 10 19 23 22 24 26 25 25
22 21 20 18 16 12 8 5 3 3 4 4 5 2 1 9 11 15 14 16 18 14 11 13 8 5 2 2 4 1 5 5 4 4 6 3 7 15 19 23 25 26 26 26 25
22 20 18 16 13 6 3 5 6 5 6 4 4 2 4 5 10 17 12 17 18 19 8 7 4 5 3 5 8 8 6 4 5 6 4 5 5 11 14 18 24 25 24 27 26
20 18 16 11 6 5 5 5 3 2 6 5 4 3 2 3 10 18 17 12 17 15 6 8 7 13 12 7 3 5 6 7 3 3 2 5 6 11 15 8 20 23 25 26 27
19 15 9 7 10 13 12 5 5 3 5 7 11 8 8 5 7 18 23 7 14 12 11 7 13 9 8 5 4 4 4 4 3 4 2 4 5 8 15 12 16 22 25 25 27
15 9 5 6 7 4 8 13 11 2 2 3 4 5 4 11 9 16 26 11 15 10 11 12 7 12 9 7 8 4 5 3 3 1 4 4 5 7 8 12 9 18 24 23 26
11 5 3 3 3 3 5 12 10 2 2 2 4 3 8 7 5 16 23 11 5 12 11 6 6 15 10 9 8 9 7 4 2 1 2 2 3 3 7 12 12 14 20 24 27
12 7 3 1 2 4 7 11 6 2 2 5 3 6 7 3 15 6 16 6 11 9 5 5 12 15 11 10 8 2 5 5 2 2 2 3 3 6 3 3 10 17 18 19 27
16 13 8 4 4 7 8 8 1 3 4 2 3 3 5 3 3 7 4 5 5 6 3 4 3 4 6 8 11 10 7 5 4 1 5 5 3 8 5 8 8 11 21 26 26
12 14 9 6 7 11 10 2 2 3 5 7 4 4 8 6 6 4 5 6 2 9 10 4 3 2 4 8 8 7 8 5 6 5 5 4 5 5 8 11 13 16 14 21 27
7 17 13 11 11 7 3 1 6 3 4 4 4 5 5 5 7 7 4 4 10 3 3 7 6 5 9 2 5 13 12 5 9 9 7 2 8 6 9 12 15 19 19 4 14
6 8 19 15 13 6 3 6 3 4 6 8 3 4 4 4 5 5 7 5 6 8 1 4 4 1 9 7 3 6 8 2 5 1 9 4 4 7 14 16 23 26 25 18 6
6 4 22 13 11 8 6 5 3 8 7 3 3 4 4 4 4 4 5 5 6 9 3 2 6 7 6 2 10 3 4 6 3 10 11 4 3 3 15 18 19 24 26 23 15
7 2 19 6 8 13 4 4 3 10 7 6 4 3 6 4 6 4 4 3 8 7 6 1 1 3 1 7 7 2 3 3 3 3 6 7 4 5 8 11 13 20 24 26 25
6 2 20 8 7 4 3 3 6 11 11 7 5 8 5 6 6 4 4 5 16 5 4 4 4 5 4 2 3 5 3 2 7 6 2 1 5 5 6 10 13 19 23 26 27
5 9 18 5 4 4 4 4 9 11 9 7 7 8 6 4 5 4 3 6 14 6 3 2 3 5 3 3 2 4 5 3 2 0 4 6 5 5 8 12 16 18 21 25 26
4 3 11 18 8 4 3 4 3 8 9 8 6 3 3 6 8 4 3 5 8 9 12 3 4 3 1 4 2 2 4 5 3 3 7 3 11 5 8 11 15 18 19 21 24
7 3 3 4 8 8 4 3 4 4 5 12 6 10 4 3 3 4 3 3 8 12 5 4 4 6 8 6 2 1 2 4 5 4 2 9 8 6 6 9 12 13 16 20 23
5 3 6 4 2 6 5 4 7 4 6 6 7 9 8 5 4 3 2 4 3 7 4 3 4 5 3 3 3 3 5 5 2 1 3 4 5 4 6 7 10 14 16 19 20
11 7 4 5 3 2 3 2 3 2 7 8 5 6 9 7 5 5 6 5 4 3 3 2 5 2 4 2 2 5 4 5 1 2 1 4 5 4 4 6 10 11 13 15 16
Wind_Direction
337 335 335 333 330 327 326 323 327 328 328 323 316 303 287 283 275 266 246 209 185 175 169 165 159 162 154 162 186 250 230 81 76 49 121 67 94 50 39 138 104 191 147 160 155
339 338 336 331 326 323 323 322 320 319 321 322 322 308 286 292 279 272 239 197 183 179 176 173 160 157 156 176 219 270 350 56 91 128 123 117 124 135 20 195 74 103 138 149 155
336 336 335 331 326 320 316 315 319 317 312 317 324 310 298 300 293 187 216 190 179 179 181 173 163 151 151 168 194 223 213 201 121 113 132 136 136 168 194 188 167 150 145 152 158
333 331 329 328 325 318 312 311 306 315 311 309 323 308 298 294 169 261 246 184 176 176 175 170 159 158 169 179 209 256 251 268 177 158 139 153 143 166 153 16 162 152 153 154 162
332 330 327 324 323 318 311 305 306 302 310 305 315 284 287 261 251 356 165 170 169 171 180 170 164 156 174 183 180 229 265 258 248 205 150 138 148 137 119 118 141 151 157 160 165
335 333 329 324 322 316 309 301 295 298 285 300 299 228 225 242 160 129 155 167 172 168 175 171 177 164 163 174 208 239 257 296 296 206 154 135 133 141 126 136 149 162 165 169 173
343 339 334 327 321 315 309 297 289 283 268 252 291 183 202 137 143 144 164 168 167 173 173 169 171 155 151 170 220 272 278 129 68 129 131 128 126 252 153 157 161 169 171 176 180
341 338 334 329 324 318 314 300 284 264 237 229 167 230 167 164 153 152 162 172 172 174 182 175 172 166 149 307 195 231 215 161 127 145 149 318 122 144 163 162 171 174 178 180 183
338 336 333 329 323 323 319 314 295 220 197 216 140 205 127 173 166 163 158 177 175 164 171 183 154 186 195 193 159 173 156 128 135 167 163 287 109 155 169 173 176 180 184 184 186
335 334 333 330 326 346 15 80 102 145 170 179 150 148 186 169 178 175 157 160 161 166 117 148 159 193 177 193 175 161 142 104 124 157 137 163 99 138 174 186 184 184 185 192 191
336 338 336 339 19 49 123 86 57 76 213 228 157 125 159 144 158 179 158 143 134 151 158 164 186 196 188 198 97 120 128 123 92 93 204 197 175 174 164 160 180 181 189 190 196
341 344 352 31 88 80 76 60 20 280 304 257 242 238 226 176 125 161 167 142 156 156 141 157 209 189 187 202 191 151 148 124 98 46 200 140 116 196 192 183 182 186 193 199 195
347 357 46 83 82 84 52 21 4 341 235 287 228 218 178 167 147 165 171 155 164 161 172 180 191 170 181 178 185 170 196 167 96 62 92 144 121 147 202 200 183 196 200 203 205
1 21 108 106 69 41 29 355 345 317 304 110 202 169 156 150 101 171 175 155 167 178 175 197 161 175 183 190 199 204 202 191 155 222 139 313 138 96 174 208 213 202 202 206 207
20 27 157 95 29 11 340 333 311 305 138 336 136 144 147 172 133 157 187 192 163 150 184 151 164 182 191 198 188 170 169 195 157 148 198 214 219 28 151 195 253 251 231 219 214
37 39 41 6 316 320 318 322 176 244 71 15 4 119 137 75 70 123 145 114 114 140 211 95 105 174 201 183 179 142 108 81 83 181 205 179 277 51 38 351 335 330 255 230 219
16 22 17 3 334 319 314 178 183 40 335 1 359 21 89 31 57 51 50 45 98 162 183 119 70 61 27 157 162 168 176 145 172 195 188 93 116 65 26 20 13 357 331 234 224
22 29 27 8 342 334 101 141 66 5 7 347 349 56 81 25 40 33 76 74 36 4 138 171 154 10 1 19 182 189 199 196 178 187 162 119 145 104 35 19 16 19 25 22 226
351 351 21 14 11 63 97 56 29 340 331 329 320 95 77 60 117 87 55 38 21 358 220 148 95 29 48 31 314 149 199 54 106 39 184 124 113 196 14 17 17 17 14 5 336
340 338 11 14 22 59 72 90 64 13 325 303 63 7 108 30 99 84 37 18 352 15 291 125 124 25 12 323 47 8 104 175 210 168 181 116 126 46 0 2 6 9 9 5 353
5 21 359 19 35 58 72 62 17 2 23 28 43 82 70 62 55 69 22 71 358 339 32 38 2 51 57 36 15 10 132 63 101 340 177 164 133 23 17 13 11 7 14 16 24
44 45 346 22 48 41 63 29 10 356 17 50 68 54 57 44 61 86 97 6 343 324 34 20 80 77 99 331 339 34 61 350 224 177 63 325 121 33 38 40 24 23 22 29 37
81 43 20 95 84 74 82 77 45 24 26 23 43 46 54 65 107 78 92 2 11 43 26 14 48 123 159 209 155 55 34 58 96 36 167 196 139 71 61 52 39 35 32 33 40
67 41 24 53 59 79 97 43 90 40 49 54 34 52 91 55 42 112 104 31 13 32 37 68 64 340 150 74 55 126 47 39 356 200 145 66 137 93 48 48 40 38 41 41 40
57 65 44 20 37 66 77 44 53 39 46 32 46 37 46 97 77 79 49 27 54 10 40 46 92 88 76 76 66 20 2 24 51 83 325 135 127 90 55 42 38 42 43 42 38
89 119 83 70 10 52 28 43 62 58 22 39 84 45 60 85 46 117 92 33 28 357 47 19 117 128 77 39 16 289 283 300 311 122 128 130 124 85 77 69 48 38 39 35 29
77 80 101 14 45 61 31 69 78 103 62 68 81 103 73 65 74 74 76 80 60 18 42 48 138 147 150 350 318 256 253 219 132 86 154 202 89 118 85 47 38 34 32 27 19